User: anonymous   Login
Location: Ostrava
(49.8330°N, 18.2830°E)
Time: 01:39:55
(UTC+01:00)
Language:

NOAA 19 - Orbit

View from above orbital plane
View from above orbital plane
View from above satellite
View from above satellite

Ground track
Ground track

The orbit data is extracted from the following two-line orbital elements,

1 33591U 09005A   16040.55167530  .00000117  00000-0  88864-4 0  9995
2 33591  99.0237 356.3874 0013286 218.5561 141.4662 14.12037426360987
Epoch (UTC): 09 February 2016 13:14:24
Eccentricity: 0.0013286
inclination: 99.0237°
perigee height: 843 km
apogee height: 862 km
right ascension of ascending node: 356.3874°
argument of perigee: 218.5561°
revolutions per day: 14.12037426
mean anomaly at epoch: 141.4662°
orbit number at epoch: 36098

The dashed part of the orbit path shows where the satellite is in the earth's shadow,  

DLR